Year,Month,Day,Hour,Minute,Value (Times are PST for temperature in C)
2018,07,13,00,00,13.80
2018,07,13,00,01,13.80
2018,07,13,00,02,13.80
2018,07,13,00,03,13.80
2018,07,13,00,04,13.80
2018,07,13,00,05,13.80
2018,07,13,00,06,13.80
2018,07,13,00,07,13.80
2018,07,13,00,08,13.80
2018,07,13,00,09,13.80
2018,07,13,00,10,13.80
2018,07,13,00,11,13.80
2018,07,13,00,12,13.80
2018,07,13,00,13,13.80
2018,07,13,00,14,13.80
2018,07,13,00,15,13.80
2018,07,13,00,16,13.70
2018,07,13,00,17,13.70
2018,07,13,00,18,13.70
2018,07,13,00,19,13.70
2018,07,13,00,20,13.70
2018,07,13,00,21,13.70
2018,07,13,00,22,13.70
2018,07,13,00,23,13.70
2018,07,13,00,24,13.70
2018,07,13,00,25,13.70
2018,07,13,00,26,13.70
2018,07,13,00,27,13.70
2018,07,13,00,28,13.60
2018,07,13,00,29,13.60
2018,07,13,00,30,13.60
2018,07,13,00,31,13.60
2018,07,13,00,32,13.60
2018,07,13,00,33,13.60
2018,07,13,00,34,13.60
2018,07,13,00,35,13.60
2018,07,13,00,36,13.60
2018,07,13,00,37,13.50
2018,07,13,00,38,13.50
2018,07,13,00,39,13.50
2018,07,13,00,40,13.50
2018,07,13,00,41,13.40
2018,07,13,00,42,13.40
2018,07,13,00,43,13.40
2018,07,13,00,44,13.40
2018,07,13,00,45,13.40
2018,07,13,00,46,13.40
2018,07,13,00,47,13.40
2018,07,13,00,48,13.30
2018,07,13,00,49,13.30
2018,07,13,00,50,13.30
2018,07,13,00,51,13.30
2018,07,13,00,52,13.30
2018,07,13,00,53,13.30
2018,07,13,00,54,13.20
2018,07,13,00,55,13.20
2018,07,13,00,56,13.20
2018,07,13,00,57,13.20
2018,07,13,00,58,13.20
2018,07,13,00,59,13.20
2018,07,13,01,00,13.20
2018,07,13,01,01,13.20
2018,07,13,01,02,13.20
2018,07,13,01,03,13.20
2018,07,13,01,04,13.20
2018,07,13,01,05,13.20
2018,07,13,01,06,13.10
2018,07,13,01,07,13.10
2018,07,13,01,08,13.10
2018,07,13,01,09,13.10
2018,07,13,01,10,13.10
2018,07,13,01,11,13.10
2018,07,13,01,12,13.10
2018,07,13,01,13,13.10
2018,07,13,01,14,13.10
2018,07,13,01,15,13.10
2018,07,13,01,16,13.00
2018,07,13,01,17,13.00
2018,07,13,01,18,13.00
2018,07,13,01,19,13.00
2018,07,13,01,20,13.00
2018,07,13,01,21,13.00
2018,07,13,01,22,13.00
2018,07,13,01,23,13.00
2018,07,13,01,24,13.00
2018,07,13,01,25,13.00
2018,07,13,01,26,13.00
2018,07,13,01,27,13.00
2018,07,13,01,28,12.90
2018,07,13,01,29,12.90
2018,07,13,01,30,12.90
2018,07,13,01,31,12.90
2018,07,13,01,32,12.90
2018,07,13,01,33,12.90
2018,07,13,01,34,12.90
2018,07,13,01,35,12.90
2018,07,13,01,36,12.90
2018,07,13,01,37,12.90
2018,07,13,01,38,12.90
2018,07,13,01,39,12.90
2018,07,13,01,40,12.80
2018,07,13,01,41,12.80
2018,07,13,01,42,12.80
2018,07,13,01,43,12.80
2018,07,13,01,44,12.80
2018,07,13,01,45,12.80
2018,07,13,01,46,12.80
2018,07,13,01,47,12.80
2018,07,13,01,48,12.80
2018,07,13,01,49,12.80
2018,07,13,01,50,12.80
2018,07,13,01,51,12.80
2018,07,13,01,52,12.80
2018,07,13,01,53,12.80
2018,07,13,01,54,12.80
2018,07,13,01,55,12.70
2018,07,13,01,56,12.70
2018,07,13,01,57,12.70
2018,07,13,01,58,12.70
2018,07,13,01,59,12.70
2018,07,13,02,00,12.60
2018,07,13,02,01,12.60
2018,07,13,02,02,12.60
2018,07,13,02,03,12.60
2018,07,13,02,04,12.60
2018,07,13,02,05,12.50
2018,07,13,02,06,12.50
2018,07,13,02,07,12.50
2018,07,13,02,08,12.50
2018,07,13,02,09,12.50
2018,07,13,02,10,12.50
2018,07,13,02,11,12.50
2018,07,13,02,12,12.40
2018,07,13,02,13,12.40
2018,07,13,02,14,12.40
2018,07,13,02,15,12.40
2018,07,13,02,16,12.40
2018,07,13,02,17,12.40
2018,07,13,02,18,12.40
2018,07,13,02,19,12.40
2018,07,13,02,20,12.40
2018,07,13,02,21,12.40
2018,07,13,02,22,12.30
2018,07,13,02,23,12.30
2018,07,13,02,24,12.30
2018,07,13,02,25,12.30
2018,07,13,02,26,12.30
2018,07,13,02,27,12.30
2018,07,13,02,28,12.30
2018,07,13,02,29,12.30
2018,07,13,02,30,12.40
2018,07,13,02,31,12.40
2018,07,13,02,32,12.40
2018,07,13,02,33,12.40
2018,07,13,02,34,12.40
2018,07,13,02,35,12.40
2018,07,13,02,36,12.40
2018,07,13,02,37,12.40
2018,07,13,02,38,12.40
2018,07,13,02,39,12.40
2018,07,13,02,40,12.40
2018,07,13,02,41,12.40
2018,07,13,02,42,12.40
2018,07,13,02,43,12.40
2018,07,13,02,44,12.40
2018,07,13,02,45,12.40
2018,07,13,02,46,12.40
2018,07,13,02,47,12.40
2018,07,13,02,48,12.40
2018,07,13,02,49,12.40
2018,07,13,02,50,12.40
2018,07,13,02,51,12.40
2018,07,13,02,52,12.40
2018,07,13,02,53,12.40
2018,07,13,02,54,12.40
2018,07,13,02,55,12.30
2018,07,13,02,56,12.30
2018,07,13,02,57,12.30
2018,07,13,02,58,12.30
2018,07,13,02,59,12.30
2018,07,13,03,00,12.30
2018,07,13,03,01,12.30
2018,07,13,03,02,12.30
2018,07,13,03,03,12.30
2018,07,13,03,04,12.30
2018,07,13,03,05,12.30
2018,07,13,03,06,12.30
2018,07,13,03,07,12.30
2018,07,13,03,08,12.30
2018,07,13,03,09,12.30
2018,07,13,03,10,12.30
2018,07,13,03,11,12.30
2018,07,13,03,12,12.30
2018,07,13,03,13,12.30
2018,07,13,03,14,12.30
2018,07,13,03,15,12.30
2018,07,13,03,16,12.30
2018,07,13,03,17,12.30
2018,07,13,03,18,12.30
2018,07,13,03,19,12.30
2018,07,13,03,20,12.30
2018,07,13,03,21,12.30
2018,07,13,03,22,12.30
2018,07,13,03,23,12.30
2018,07,13,03,24,12.30
2018,07,13,03,25,12.30
2018,07,13,03,26,12.30
2018,07,13,03,27,12.30
2018,07,13,03,28,12.30
2018,07,13,03,29,12.30
2018,07,13,03,30,12.30
2018,07,13,03,31,12.20
2018,07,13,03,32,12.20
2018,07,13,03,33,12.20
2018,07,13,03,34,12.20
2018,07,13,03,35,12.20
2018,07,13,03,36,12.20
2018,07,13,03,37,12.20
2018,07,13,03,38,12.20
2018,07,13,03,39,12.20
2018,07,13,03,40,12.30
2018,07,13,03,41,12.30
2018,07,13,03,42,12.30
2018,07,13,03,43,12.30
2018,07,13,03,44,12.30
2018,07,13,03,45,12.30
2018,07,13,03,46,12.30
2018,07,13,03,47,12.30
2018,07,13,03,48,12.30
2018,07,13,03,49,12.30
2018,07,13,03,50,12.30
2018,07,13,03,51,12.30
2018,07,13,03,52,12.30
2018,07,13,03,53,12.30
2018,07,13,03,54,12.30
2018,07,13,03,55,12.30
2018,07,13,03,56,12.30
2018,07,13,03,57,12.30
2018,07,13,03,58,12.30
2018,07,13,03,59,12.30
2018,07,13,04,00,12.20
2018,07,13,04,01,12.20
2018,07,13,04,02,12.20
2018,07,13,04,03,12.20
2018,07,13,04,04,12.20
2018,07,13,04,05,12.20
2018,07,13,04,06,12.10
2018,07,13,04,07,12.10
2018,07,13,04,08,12.20
2018,07,13,04,09,12.20
2018,07,13,04,10,12.20
2018,07,13,04,11,12.20
2018,07,13,04,12,12.20
2018,07,13,04,13,12.20
2018,07,13,04,14,12.20
2018,07,13,04,15,12.20
2018,07,13,04,16,12.20
2018,07,13,04,17,12.20
2018,07,13,04,18,12.20
2018,07,13,04,19,12.20
2018,07,13,04,20,12.30
2018,07,13,04,21,12.30
2018,07,13,04,22,12.30
2018,07,13,04,23,12.30
2018,07,13,04,24,12.30
2018,07,13,04,25,12.30
2018,07,13,04,26,12.20
2018,07,13,04,27,12.20
2018,07,13,04,28,12.20
2018,07,13,04,29,12.20
2018,07,13,04,30,12.20
2018,07,13,04,31,12.20
2018,07,13,04,32,12.20
2018,07,13,04,33,12.20
2018,07,13,04,34,12.20
2018,07,13,04,35,12.20
2018,07,13,04,36,12.10
2018,07,13,04,37,12.10
2018,07,13,04,38,12.10
2018,07,13,04,39,12.10
2018,07,13,04,40,12.10
2018,07,13,04,41,12.00
2018,07,13,04,42,12.00
2018,07,13,04,43,12.00
2018,07,13,04,44,11.90
2018,07,13,04,45,11.90
2018,07,13,04,46,11.90
2018,07,13,04,47,11.90
2018,07,13,04,48,11.90
2018,07,13,04,49,11.90
2018,07,13,04,50,11.90
2018,07,13,04,51,11.90
2018,07,13,04,52,11.90
2018,07,13,04,53,11.90
2018,07,13,04,54,11.80
2018,07,13,04,55,11.80
2018,07,13,04,56,11.80
2018,07,13,04,57,11.80
2018,07,13,04,58,11.80
2018,07,13,04,59,11.80
2018,07,13,05,00,11.80
2018,07,13,05,01,11.80
2018,07,13,05,02,11.80
2018,07,13,05,03,11.80
2018,07,13,05,04,11.80
2018,07,13,05,05,11.80
2018,07,13,05,06,11.80
2018,07,13,05,07,11.80
2018,07,13,05,08,11.80
2018,07,13,05,09,11.80
2018,07,13,05,10,11.70
2018,07,13,05,11,11.70
2018,07,13,05,12,11.70
2018,07,13,05,13,11.70
2018,07,13,05,14,11.70
2018,07,13,05,15,11.70
2018,07,13,05,16,11.70
2018,07,13,05,17,11.70
2018,07,13,05,18,11.70
2018,07,13,05,19,11.70
2018,07,13,05,20,11.70
2018,07,13,05,21,11.70
2018,07,13,05,22,11.70
2018,07,13,05,23,11.70
2018,07,13,05,24,11.70
2018,07,13,05,25,11.70
2018,07,13,05,26,11.70
2018,07,13,05,27,11.70
2018,07,13,05,28,11.70
2018,07,13,05,29,11.60
2018,07,13,05,30,11.60
2018,07,13,05,31,11.60
2018,07,13,05,32,11.60
2018,07,13,05,33,11.60
2018,07,13,05,34,11.60
2018,07,13,05,35,11.60
2018,07,13,05,36,11.50
2018,07,13,05,37,11.50
2018,07,13,05,38,11.50
2018,07,13,05,39,11.50
2018,07,13,05,40,11.50
2018,07,13,05,41,11.50
2018,07,13,05,42,11.50
2018,07,13,05,43,11.50
2018,07,13,05,44,11.50
2018,07,13,05,45,11.50
2018,07,13,05,46,11.50
2018,07,13,05,47,11.60
2018,07,13,05,48,11.60
2018,07,13,05,49,11.60
2018,07,13,05,50,11.60
2018,07,13,05,51,11.60
2018,07,13,05,52,11.60
2018,07,13,05,53,11.60
2018,07,13,05,54,11.60
2018,07,13,05,55,11.60
2018,07,13,05,56,11.60
2018,07,13,05,57,11.60
2018,07,13,05,58,11.60
2018,07,13,05,59,11.60
2018,07,13,06,00,11.60
2018,07,13,06,01,11.60
2018,07,13,06,02,11.70
2018,07,13,06,03,11.70
2018,07,13,06,04,11.70
2018,07,13,06,05,11.70
2018,07,13,06,06,11.70
2018,07,13,06,07,11.70
2018,07,13,06,08,11.70
2018,07,13,06,09,11.70
2018,07,13,06,10,11.80
2018,07,13,06,11,11.80
2018,07,13,06,12,11.80
2018,07,13,06,13,11.80
2018,07,13,06,14,11.80
2018,07,13,06,15,11.80
2018,07,13,06,16,11.80
2018,07,13,06,17,11.80
2018,07,13,06,18,11.80
2018,07,13,06,19,11.80
2018,07,13,06,20,11.80
2018,07,13,06,21,11.80
2018,07,13,06,22,11.80
2018,07,13,06,23,11.80
2018,07,13,06,24,11.80
2018,07,13,06,25,11.90
2018,07,13,06,26,11.90
2018,07,13,06,27,11.90
2018,07,13,06,28,12.00
2018,07,13,06,29,12.00
2018,07,13,06,30,12.10
2018,07,13,06,31,12.10
2018,07,13,06,32,12.10
2018,07,13,06,33,12.10
2018,07,13,06,34,12.10
2018,07,13,06,35,12.10
2018,07,13,06,36,12.10
2018,07,13,06,37,12.10
2018,07,13,06,38,12.10
2018,07,13,06,39,12.20
2018,07,13,06,40,12.20
2018,07,13,06,41,12.20
2018,07,13,06,42,12.20
2018,07,13,06,43,12.20
2018,07,13,06,44,12.20
2018,07,13,06,45,12.30
2018,07,13,06,46,12.30
2018,07,13,06,47,12.30
2018,07,13,06,48,12.30
2018,07,13,06,49,12.30
2018,07,13,06,50,12.30
2018,07,13,06,51,12.40
2018,07,13,06,52,12.40
2018,07,13,06,53,12.40
2018,07,13,06,54,12.50
2018,07,13,06,55,12.50
2018,07,13,06,56,12.60
2018,07,13,06,57,12.60
2018,07,13,06,58,12.70
2018,07,13,06,59,12.70
2018,07,13,07,00,12.80
2018,07,13,07,01,12.80
2018,07,13,07,02,12.90
2018,07,13,07,03,12.90
2018,07,13,07,04,13.00
2018,07,13,07,05,13.10
2018,07,13,07,06,13.10
2018,07,13,07,07,13.20
2018,07,13,07,08,13.20
2018,07,13,07,09,13.20
2018,07,13,07,10,13.30
2018,07,13,07,11,13.30
2018,07,13,07,12,13.30
2018,07,13,07,13,13.40
2018,07,13,07,14,13.40
2018,07,13,07,15,13.50
2018,07,13,07,16,13.60
2018,07,13,07,17,13.60
2018,07,13,07,18,13.70
2018,07,13,07,19,13.80
2018,07,13,07,20,13.90
2018,07,13,07,21,13.90
2018,07,13,07,22,14.00
2018,07,13,07,23,14.10
2018,07,13,07,24,14.20
2018,07,13,07,25,14.30
2018,07,13,07,26,14.40
2018,07,13,07,27,14.40
2018,07,13,07,28,14.50
2018,07,13,07,29,14.60
2018,07,13,07,30,14.70
2018,07,13,07,31,14.70
2018,07,13,07,32,14.80
2018,07,13,07,33,14.80
2018,07,13,07,34,14.90
2018,07,13,07,35,15.00
2018,07,13,07,36,15.00
2018,07,13,07,37,15.10
2018,07,13,07,38,15.20
2018,07,13,07,39,15.20
2018,07,13,07,40,15.30
2018,07,13,07,41,15.30
2018,07,13,07,42,15.30
2018,07,13,07,43,15.40
2018,07,13,07,44,15.50
2018,07,13,07,45,15.50
2018,07,13,07,46,15.50
2018,07,13,07,47,15.60
2018,07,13,07,48,15.60
2018,07,13,07,49,15.70
2018,07,13,07,50,15.70
2018,07,13,07,51,15.70
2018,07,13,07,52,15.70
2018,07,13,07,53,15.70
2018,07,13,07,54,15.70
2018,07,13,07,55,15.80
2018,07,13,07,56,15.80
2018,07,13,07,57,15.80
2018,07,13,07,58,15.80
2018,07,13,07,59,15.80
2018,07,13,08,00,15.80
2018,07,13,08,01,15.90
2018,07,13,08,02,15.90
2018,07,13,08,03,15.90
2018,07,13,08,04,16.00
2018,07,13,08,05,16.10
2018,07,13,08,06,16.10
2018,07,13,08,07,16.20
2018,07,13,08,08,16.20
2018,07,13,08,09,16.30
2018,07,13,08,10,16.30
2018,07,13,08,11,16.30
2018,07,13,08,12,16.30
2018,07,13,08,13,16.40
2018,07,13,08,14,16.40
2018,07,13,08,15,16.40
2018,07,13,08,16,16.50
2018,07,13,08,17,16.50
2018,07,13,08,18,16.60
2018,07,13,08,19,16.60
2018,07,13,08,20,16.70
2018,07,13,08,21,16.70
2018,07,13,08,22,16.80
2018,07,13,08,23,16.80
2018,07,13,08,24,16.80
2018,07,13,08,25,16.90
2018,07,13,08,26,16.90
2018,07,13,08,27,17.00
2018,07,13,08,28,17.10
2018,07,13,08,29,17.10
2018,07,13,08,30,17.20
2018,07,13,08,31,17.20
2018,07,13,08,32,17.20
2018,07,13,08,33,17.30
2018,07,13,08,34,17.30
2018,07,13,08,35,17.30
2018,07,13,08,36,17.40
2018,07,13,08,37,17.40
2018,07,13,08,38,17.40
2018,07,13,08,39,17.50
2018,07,13,08,40,17.50
2018,07,13,08,41,17.60
2018,07,13,08,42,17.60
2018,07,13,08,43,17.60
2018,07,13,08,44,17.60
2018,07,13,08,45,17.60
2018,07,13,08,46,17.60
2018,07,13,08,47,17.60
2018,07,13,08,48,17.60
2018,07,13,08,49,17.60
2018,07,13,08,50,17.70
2018,07,13,08,51,17.70
2018,07,13,08,52,17.80
2018,07,13,08,53,17.80
2018,07,13,08,54,17.80
2018,07,13,08,55,17.70
2018,07,13,08,56,17.70
2018,07,13,08,57,17.70
2018,07,13,08,58,17.70
2018,07,13,08,59,17.60
2018,07,13,09,00,17.60
2018,07,13,09,01,17.60
2018,07,13,09,02,17.60
2018,07,13,09,03,17.60
2018,07,13,09,04,17.60
2018,07,13,09,05,17.60
2018,07,13,09,06,17.70
2018,07,13,09,07,17.70
2018,07,13,09,08,17.70
2018,07,13,09,09,17.80
2018,07,13,09,10,17.80
2018,07,13,09,11,17.90
2018,07,13,09,12,18.00
2018,07,13,09,13,18.00
2018,07,13,09,14,18.10
2018,07,13,09,15,18.10
2018,07,13,09,16,18.10
2018,07,13,09,17,18.20
2018,07,13,09,18,18.30
2018,07,13,09,19,18.30
2018,07,13,09,20,18.40
2018,07,13,09,21,18.50
2018,07,13,09,22,18.50
2018,07,13,09,23,18.60
2018,07,13,09,24,18.60
2018,07,13,09,25,18.60
2018,07,13,09,26,18.70
2018,07,13,09,27,18.70
2018,07,13,09,28,18.80
2018,07,13,09,29,18.80
2018,07,13,09,30,18.90
2018,07,13,09,31,18.80
2018,07,13,09,32,18.80
2018,07,13,09,33,18.80
2018,07,13,09,34,18.80
2018,07,13,09,35,18.70
2018,07,13,09,36,18.60
2018,07,13,09,37,18.60
2018,07,13,09,38,18.50
2018,07,13,09,39,18.50
2018,07,13,09,40,18.50
2018,07,13,09,41,18.50
2018,07,13,09,42,18.40
2018,07,13,09,43,18.40
2018,07,13,09,44,18.40
2018,07,13,09,45,18.40
2018,07,13,09,46,18.40
2018,07,13,09,47,18.40
2018,07,13,09,48,18.40
2018,07,13,09,49,18.40
2018,07,13,09,50,18.50
2018,07,13,09,51,18.50
2018,07,13,09,52,18.60
2018,07,13,09,53,18.70
2018,07,13,09,54,18.80
2018,07,13,09,55,18.80
2018,07,13,09,56,18.90
2018,07,13,09,57,19.00
2018,07,13,09,58,19.00
2018,07,13,09,59,19.10
2018,07,13,10,00,19.10
2018,07,13,10,01,19.10
2018,07,13,10,02,19.10
2018,07,13,10,03,19.20
2018,07,13,10,04,19.20
2018,07,13,10,05,19.20
2018,07,13,10,06,19.20
2018,07,13,10,07,19.20
2018,07,13,10,08,19.30
2018,07,13,10,09,19.30
2018,07,13,10,10,19.40
2018,07,13,10,11,19.40
2018,07,13,10,12,19.40
2018,07,13,10,13,19.40
2018,07,13,10,14,19.40
2018,07,13,10,15,19.40
2018,07,13,10,16,19.40
2018,07,13,10,17,19.30
2018,07,13,10,18,19.30
2018,07,13,10,19,19.30
2018,07,13,10,20,19.30
2018,07,13,10,21,19.30
2018,07,13,10,22,19.30
2018,07,13,10,23,19.30
2018,07,13,10,24,19.20
2018,07,13,10,25,19.20
2018,07,13,10,26,19.10
2018,07,13,10,27,19.10
2018,07,13,10,28,19.00
2018,07,13,10,29,19.00
2018,07,13,10,30,18.90
2018,07,13,10,31,18.90
2018,07,13,10,32,18.90
2018,07,13,10,33,18.90
2018,07,13,10,34,18.90
2018,07,13,10,35,18.90
2018,07,13,10,36,18.80
2018,07,13,10,37,18.80
2018,07,13,10,38,18.80
2018,07,13,10,39,18.80
2018,07,13,10,40,18.80
2018,07,13,10,41,18.70
2018,07,13,10,42,18.70
2018,07,13,10,43,18.70
2018,07,13,10,44,18.70
2018,07,13,10,45,18.70
2018,07,13,10,46,18.70
2018,07,13,10,47,18.80
2018,07,13,10,48,18.80
2018,07,13,10,49,18.80
2018,07,13,10,50,18.80
2018,07,13,10,51,18.80
2018,07,13,10,52,18.80
2018,07,13,10,53,18.70
2018,07,13,10,54,18.60
2018,07,13,10,55,18.60
2018,07,13,10,56,18.50
2018,07,13,10,57,18.50
2018,07,13,10,58,18.40
2018,07,13,10,59,18.30
2018,07,13,11,00,18.20
2018,07,13,11,01,18.10
2018,07,13,11,02,18.00
2018,07,13,11,03,17.90
2018,07,13,11,04,17.90
2018,07,13,11,05,17.80
2018,07,13,11,06,17.80
2018,07,13,11,07,17.70
2018,07,13,11,08,17.60
2018,07,13,11,09,17.50
2018,07,13,11,10,17.40
2018,07,13,11,11,17.40
2018,07,13,11,12,17.40
2018,07,13,11,13,17.40
2018,07,13,11,14,17.40
2018,07,13,11,15,17.40
2018,07,13,11,16,17.40
2018,07,13,11,17,17.40
2018,07,13,11,18,17.40
2018,07,13,11,19,17.50
2018,07,13,11,20,17.50
2018,07,13,11,21,17.60
2018,07,13,11,22,17.50
2018,07,13,11,23,17.50
2018,07,13,11,24,17.50
2018,07,13,11,25,17.50
2018,07,13,11,26,17.60
2018,07,13,11,27,17.60
2018,07,13,11,28,17.60
2018,07,13,11,29,17.60
2018,07,13,11,30,17.60
2018,07,13,11,31,17.50
2018,07,13,11,32,17.50
2018,07,13,11,33,17.50
2018,07,13,11,34,17.50
2018,07,13,11,35,17.50
2018,07,13,11,36,17.50
2018,07,13,11,37,17.50
2018,07,13,11,38,17.60
2018,07,13,11,39,17.60
2018,07,13,11,40,17.60
2018,07,13,11,41,17.60
2018,07,13,11,42,17.60
2018,07,13,11,43,17.60
2018,07,13,11,44,17.60
2018,07,13,11,45,17.70
2018,07,13,11,46,17.80
2018,07,13,11,47,17.90
2018,07,13,11,48,17.90
2018,07,13,11,49,18.00
2018,07,13,11,50,18.00
2018,07,13,11,51,18.00
2018,07,13,11,52,17.90
2018,07,13,11,53,17.90
2018,07,13,11,54,17.90
2018,07,13,11,55,17.90
2018,07,13,11,56,17.90
2018,07,13,11,57,17.90
2018,07,13,11,58,17.90
2018,07,13,11,59,17.90
2018,07,13,12,00,17.80
2018,07,13,12,01,17.80
2018,07,13,12,02,17.80
2018,07,13,12,03,17.80
2018,07,13,12,04,17.90
2018,07,13,12,05,17.90
2018,07,13,12,06,18.00
2018,07,13,12,07,18.10
2018,07,13,12,08,18.10
2018,07,13,12,09,18.20
2018,07,13,12,10,18.30
2018,07,13,12,11,18.40
2018,07,13,12,12,18.50
2018,07,13,12,13,18.60
2018,07,13,12,14,18.70
2018,07,13,12,15,18.80
2018,07,13,12,16,19.00
2018,07,13,12,17,19.00
2018,07,13,12,18,19.10
2018,07,13,12,19,19.20
2018,07,13,12,20,19.30
2018,07,13,12,21,19.30
2018,07,13,12,22,19.40
2018,07,13,12,23,19.40
2018,07,13,12,24,19.50
2018,07,13,12,25,19.50
2018,07,13,12,26,19.60
2018,07,13,12,27,19.70
2018,07,13,12,28,19.80
2018,07,13,12,29,19.80
2018,07,13,12,30,19.90
2018,07,13,12,31,19.90
2018,07,13,12,32,19.90
2018,07,13,12,33,19.90
2018,07,13,12,34,19.80
2018,07,13,12,35,19.80
2018,07,13,12,36,19.90
2018,07,13,12,37,19.90
2018,07,13,12,38,20.00
2018,07,13,12,39,20.00
2018,07,13,12,40,20.10
2018,07,13,12,41,20.20
2018,07,13,12,42,20.30
2018,07,13,12,43,20.30
2018,07,13,12,44,20.40
2018,07,13,12,45,20.40
2018,07,13,12,46,20.50
2018,07,13,12,47,20.50
2018,07,13,12,48,20.50
2018,07,13,12,49,20.50
2018,07,13,12,50,20.50
2018,07,13,12,51,20.50
2018,07,13,12,52,20.60
2018,07,13,12,53,20.60
2018,07,13,12,54,20.70
2018,07,13,12,55,20.70
2018,07,13,12,56,20.80
2018,07,13,12,57,20.80
2018,07,13,12,58,20.80
2018,07,13,12,59,20.80
2018,07,13,13,00,20.90
2018,07,13,13,01,20.90
2018,07,13,13,02,21.00
2018,07,13,13,03,21.10
2018,07,13,13,04,21.10
2018,07,13,13,05,21.10
2018,07,13,13,06,21.20
2018,07,13,13,07,21.20
2018,07,13,13,08,21.20
2018,07,13,13,09,21.30
2018,07,13,13,10,21.30
2018,07,13,13,11,21.30
2018,07,13,13,12,21.30
2018,07,13,13,13,21.30
2018,07,13,13,14,21.40
2018,07,13,13,15,21.40
2018,07,13,13,16,21.40
2018,07,13,13,17,21.40
2018,07,13,13,18,21.40
2018,07,13,13,19,21.50
2018,07,13,13,20,21.50
2018,07,13,13,21,21.60
2018,07,13,13,22,21.60
2018,07,13,13,23,21.60
2018,07,13,13,24,21.60
2018,07,13,13,25,21.60
2018,07,13,13,26,21.60
2018,07,13,13,27,21.70
2018,07,13,13,28,21.60
2018,07,13,13,29,21.50
2018,07,13,13,30,21.40
2018,07,13,13,31,21.30
2018,07,13,13,32,21.20
2018,07,13,13,33,21.20
2018,07,13,13,34,21.20
2018,07,13,13,35,21.20
2018,07,13,13,36,21.20
2018,07,13,13,37,21.10
2018,07,13,13,38,21.00
2018,07,13,13,39,20.90
2018,07,13,13,40,20.80
2018,07,13,13,41,20.80
2018,07,13,13,42,20.70
2018,07,13,13,43,20.70
2018,07,13,13,44,20.60
2018,07,13,13,45,20.60
2018,07,13,13,46,20.60
2018,07,13,13,47,20.70
2018,07,13,13,48,20.70
2018,07,13,13,49,20.70
2018,07,13,13,50,20.70
2018,07,13,13,51,20.70
2018,07,13,13,52,20.60
2018,07,13,13,53,20.60
2018,07,13,13,54,20.40
2018,07,13,13,55,20.30
2018,07,13,13,56,20.30
2018,07,13,13,57,20.20
2018,07,13,13,58,20.10
2018,07,13,13,59,20.10
2018,07,13,14,00,20.00
2018,07,13,14,01,19.90
2018,07,13,14,02,20.00
2018,07,13,14,03,20.00
2018,07,13,14,04,19.90
2018,07,13,14,05,19.80
2018,07,13,14,06,19.70
2018,07,13,14,07,19.60
2018,07,13,14,08,19.40
2018,07,13,14,09,19.30
2018,07,13,14,10,19.30
2018,07,13,14,11,19.30
2018,07,13,14,12,19.40
2018,07,13,14,13,19.50
2018,07,13,14,14,19.70
2018,07,13,14,15,19.80
2018,07,13,14,16,20.00
2018,07,13,14,17,20.00
2018,07,13,14,18,20.10
2018,07,13,14,19,20.20
2018,07,13,14,20,20.30
2018,07,13,14,21,20.30
2018,07,13,14,22,20.30
2018,07,13,14,23,20.40
2018,07,13,14,24,20.40
2018,07,13,14,25,20.40
2018,07,13,14,26,20.40
2018,07,13,14,27,20.40
2018,07,13,14,28,20.40
2018,07,13,14,29,20.40
2018,07,13,14,30,20.50
2018,07,13,14,31,20.60
2018,07,13,14,32,20.70
2018,07,13,14,33,20.70
2018,07,13,14,34,20.80
2018,07,13,14,35,20.80
2018,07,13,14,36,21.00
2018,07,13,14,37,21.10
2018,07,13,14,38,21.20
2018,07,13,14,39,21.30
2018,07,13,14,40,21.30
2018,07,13,14,41,21.30
2018,07,13,14,42,21.30
2018,07,13,14,43,21.30
2018,07,13,14,44,21.30
2018,07,13,14,45,21.30
2018,07,13,14,46,21.40
2018,07,13,14,47,21.40
2018,07,13,14,48,21.50
2018,07,13,14,49,21.50
2018,07,13,14,50,21.40
2018,07,13,14,51,21.40
2018,07,13,14,52,21.40
2018,07,13,14,53,21.40
2018,07,13,14,54,21.40
2018,07,13,14,55,21.50
2018,07,13,14,56,21.60
2018,07,13,14,57,21.60
2018,07,13,14,58,21.70
2018,07,13,14,59,21.80
2018,07,13,15,00,21.80
2018,07,13,15,01,21.90
2018,07,13,15,02,21.90
2018,07,13,15,03,22.00
2018,07,13,15,04,22.00
2018,07,13,15,05,21.90
2018,07,13,15,06,21.90
2018,07,13,15,07,21.80
2018,07,13,15,08,21.80
2018,07,13,15,09,21.80
2018,07,13,15,10,21.80
2018,07,13,15,11,21.80
2018,07,13,15,12,21.80
2018,07,13,15,13,21.70
2018,07,13,15,14,21.70
2018,07,13,15,15,21.60
2018,07,13,15,16,21.60
2018,07,13,15,17,21.60
2018,07,13,15,18,21.50
2018,07,13,15,19,21.50
2018,07,13,15,20,21.50
2018,07,13,15,21,21.40
2018,07,13,15,22,21.40
2018,07,13,15,23,21.40
2018,07,13,15,24,21.40
2018,07,13,15,25,21.50
2018,07,13,15,26,21.50
2018,07,13,15,27,21.50
2018,07,13,15,28,21.50
2018,07,13,15,29,21.40
2018,07,13,15,30,21.40
2018,07,13,15,31,21.30
2018,07,13,15,32,21.40
2018,07,13,15,33,21.40
2018,07,13,15,34,21.40
2018,07,13,15,35,21.50
2018,07,13,15,36,21.50
2018,07,13,15,37,21.50
2018,07,13,15,38,21.60
2018,07,13,15,39,21.60
2018,07,13,15,40,21.60
2018,07,13,15,41,21.60
2018,07,13,15,42,21.60
2018,07,13,15,43,21.50
2018,07,13,15,44,21.50
2018,07,13,15,45,21.50
2018,07,13,15,46,21.50
2018,07,13,15,47,21.50
2018,07,13,15,48,21.50
2018,07,13,15,49,21.50
2018,07,13,15,50,21.50
2018,07,13,15,51,21.40
2018,07,13,15,52,21.40
2018,07,13,15,53,21.50
2018,07,13,15,54,21.60
2018,07,13,15,55,21.60
2018,07,13,15,56,21.60
2018,07,13,15,57,21.60
2018,07,13,15,58,21.50
2018,07,13,15,59,21.50
2018,07,13,16,00,21.40
2018,07,13,16,01,21.40
2018,07,13,16,02,21.50
2018,07,13,16,03,21.50
2018,07,13,16,04,21.60
2018,07,13,16,05,21.70
2018,07,13,16,06,21.70
2018,07,13,16,07,21.80
2018,07,13,16,08,21.80
2018,07,13,16,09,21.80
2018,07,13,16,10,21.80
2018,07,13,16,11,21.80
2018,07,13,16,12,21.70
2018,07,13,16,13,21.60
2018,07,13,16,14,21.60
2018,07,13,16,15,21.60
2018,07,13,16,16,21.60
2018,07,13,16,17,21.60
2018,07,13,16,18,21.60
2018,07,13,16,19,21.60
2018,07,13,16,20,21.60
2018,07,13,16,21,21.70
2018,07,13,16,22,21.60
2018,07,13,16,23,21.60
2018,07,13,16,24,21.60
2018,07,13,16,25,21.50
2018,07,13,16,26,21.40
2018,07,13,16,27,21.30
2018,07,13,16,28,21.20
2018,07,13,16,29,21.20
2018,07,13,16,30,21.20
2018,07,13,16,31,21.20
2018,07,13,16,32,21.30
2018,07,13,16,33,21.30
2018,07,13,16,34,21.20
2018,07,13,16,35,21.20
2018,07,13,16,36,21.20
2018,07,13,16,37,21.20
2018,07,13,16,38,21.30
2018,07,13,16,39,21.20
2018,07,13,16,40,21.10
2018,07,13,16,41,21.10
2018,07,13,16,42,21.10
2018,07,13,16,43,21.10
2018,07,13,16,44,21.10
2018,07,13,16,45,21.20
2018,07,13,16,46,21.20
2018,07,13,16,47,21.20
2018,07,13,16,48,21.20
2018,07,13,16,49,21.20
2018,07,13,16,50,21.10
2018,07,13,16,51,21.00
2018,07,13,16,52,21.00
2018,07,13,16,53,21.00
2018,07,13,16,54,21.10
2018,07,13,16,55,21.20
2018,07,13,16,56,21.20
2018,07,13,16,57,21.30
2018,07,13,16,58,21.30
2018,07,13,16,59,21.40
2018,07,13,17,00,21.40
2018,07,13,17,01,21.40
2018,07,13,17,02,21.40
2018,07,13,17,03,21.30
2018,07,13,17,04,21.30
2018,07,13,17,05,21.30
2018,07,13,17,06,21.20
2018,07,13,17,07,21.20
2018,07,13,17,08,21.20
2018,07,13,17,09,21.20
2018,07,13,17,10,21.30
2018,07,13,17,11,21.30
2018,07,13,17,12,21.30
2018,07,13,17,13,21.40
2018,07,13,17,14,21.40
2018,07,13,17,15,21.50
2018,07,13,17,16,21.60
2018,07,13,17,17,21.60
2018,07,13,17,18,21.70
2018,07,13,17,19,21.70